Flag for Canada Weather past 2 weeks in Whistler, British Columbia, Canada

Now
53 °F

Cool.


Feels Like: 53 °F
Forecast: 47 / 73 °F
Wind: 1 mph from Northeast

Location: Squamish Airport

Current Time: Jul 26, 2014 at 2:49:36 AM

Latest Report: Jul 26, 2014 at 2:00 AM


Visibility: N/A

Pressure: 30.09 "Hg

Humidity: 95%

Dew point: 52 °F

Location of WhistlerLocation

Historic Weather in Whistler — Graph

°F

Whistler temperature yesterday

Maximum temperature yesterday: 70 °F (at 2:00 PM)
Minimum temperature yesterday: 56 °F (at 11:00 PM)
Average temperature yesterday: 62 °F

Past Weeks' High & Low Weather Summary

 TemperatureHumidityPressure
High90 °F (Jul 13, 6:00 PM)98% (Jul 16, 6:00 AM)30.14 "Hg (Jul 16, 6:00 AM)
Low52 °F (Jul 18, 6:00 AM)28% (Jul 12, 11:00 AM)29.83 "Hg (Jul 16, 7:00 PM)
Average67 °F70%29.97 "Hg
* Reported Jul 11 1:00 AM — Jul 26 1:00 AM, Whistler, Weather by CustomWeather, © 2014

Note: Actual official high and low records may vary slightly from our data, if they occured in-between our weather recording intervals... More about our weather records

Advertising

Whistler weather history for previous 24 hours

 ConditionsComfort  
Time TempWeatherWind HumidityBarometerVisibility
1:00 AM
Jul 26
54 °FCool.1 mph94%30.09 "HgN/A
12:00 AM55 °FCool.No wind93%30.09 "HgN/A
11:00 PM
Jul 25
56 °FCool.2 mph93%30.08 "HgN/A
10:00 PM57 °FCool.No wind89%30.07 "HgN/A
9:00 PM60 °FCool.1 mph85%30.06 "HgN/A
8:00 PM65 °FMild.2 mph67%30.05 "HgN/A
7:00 PM69 °FMild.6 mph58%30.06 "HgN/A
6:00 PM69 °FMild.3 mph58%30.06 "HgN/A
5:00 PM69 °FMild.3 mph58%30.06 "HgN/A
4:00 PM70 °FMild.7 mph58%30.07 "HgN/A
3:00 PM69 °FMild.7 mph57%30.08 "HgN/A
2:00 PM70 °FMild.9 mph55%30.09 "HgN/A
1:00 PM69 °FMild.8 mph56%30.10 "HgN/A
12:00 PM67 °FMild.8 mph58%30.11 "HgN/A
11:00 AM65 °FMild.5 mph65%30.11 "HgN/A
10:00 AM62 °FCool.3 mph74%30.13 "HgN/A
9:00 AM60 °FCool.3 mph83%30.13 "HgN/A
8:00 AM59 °FCool.No wind87%30.13 "HgN/A
7:00 AM57 °FCool.No wind94%30.12 "HgN/A
6:00 AM56 °FCool.1 mph94%30.12 "HgN/A
5:00 AM57 °FCool.1 mph95%30.12 "HgN/A
4:00 AM57 °FCool.1 mph95%30.12 "HgN/A
3:00 AM57 °FCool.No wind95%30.13 "HgN/A
2:00 AM57 °FCool.No wind95%30.13 "HgN/A
Weather by CustomWeather, © 2014

See weather overviewHow to use our weather pages